星链-5489 (STARLINK-5489 )

导读

STARLINK-5489是美国太空探索技术公司(SpaceX)“星链”星座中的一颗卫星,于2023年3月29日发射入轨,属于星链项目第二代组网卫星,主要为全球范围提供低延迟、高速率的宽带互联网服务,尤其服务偏远地区及网络基础设施薄弱区域,进一步扩充了星链星座的部署规模与服务覆盖能力。

基本信息
目录编号:
56136
目录名称:
STARLINK-5489
国际标识:
2023-046AW
轨道中心:
EARTH
卫星名称:
星链-5489
卫星全名:
星链-5489 (STARLINK-5489 )
卫星状态:
在轨 (已飞行1255 天)
发射日期:
2023-03-29 UTC
国别 :
美国 (US)
星等 :
--
轨道信息
数据来源 国际轨道数据 AOE轨道数据
星历时间 2026-09-04T06:35:08+0800
15小时前
查看轨道信息
2026-09-03T23:00:00+0800
22小时前
查看轨道信息
半长轴 6861.2km 6861.202km
偏心率 0.0001285 0.0001342
轨道倾角 43.001° 43.001°
近地点辐角 267.524° 273.548°
升交点赤经 220.125° 221.918°
平近点角 92.547° 146.353°
近地点 482.181km 482.144km
远地点 483.945km 483.986km
周期 94.267分钟 94.267分钟
每日圈数 15.275754 15.275748
详细信息
固有亮度:
5
最大亮度:
2.5
卫星平台:
Starlink v1.5
覆盖范围:
全球
运营商:
太空探索技术公司
运营商所在国:
美国
制造商(研发单位):
太空探索技术公司
制造商所在国:
美国
使用方式:
暂无
卫星简介
星链(Starlink)计划是由太空探索技术公司(SpaceX)提出的一个巨型低轨卫星互联网星座项目,计划在2019年至2024年间在太空搭建由约1.2万颗卫星组成的“星链”网络,其中1584颗将部署在地球上空550千米处的近地轨道,并从2020年开始工作。该卫星仍在工作。
2D轨道图
3D轨道图
轨道高度分析图
轨道倾角分析图
轨道综合分析图
查看轨道综合分析图
交会数据列表
事件ID 空间交会对象 最接近时刻(TCA) 交会距离 交会风险概率(CRP) 交会风险指数(CRI) 操作
CDM_260906-144205-613606-790921
2026-09-06T
14:42:34+0000
0.257 km
中距离
4.822056E-4 高风险 0.89
CDM_260905-012905-613606-379321
2026-09-05T
01:29:17+0000
0.415 km
远距离
2.110339E-4 高风险 0.81
CDM_260906-130305-613606-745021
2026-09-06T
13:03:39+0000
1.335 km
极远距离
4.780794E-6 低风险 0.49
CDM_260906-130805-613606-790921
2026-09-06T
13:08:24+0000
1.473 km
极远距离
4.645573E-6 低风险 0.48
CDM_260905-030305-613606-379321
2026-09-05T
03:03:26+0000
1.574 km
极远距离
3.691921E-6 低风险 0.46
CDM_260906-161605-613606-790921
2026-09-06T
16:16:43+0000
1.698 km
极远距离
2.998934E-6 低风险 0.45
CDM_260906-042904-097505-613621
2026-09-06T
04:29:12+0000
2.002 km
极远距离
2.310536E-6 低风险 0.42
CDM_260904-235505-613606-379321
2026-09-04T
23:55:07+0000
2.195 km
极远距离
1.52875E-6 低风险 0.39
CDM_260906-112905-613606-745021
2026-09-06T
11:29:30+0000
2.369 km
极远距离
1.037015E-6 低风险 0.35
CDM_260906-113405-613606-790921
2026-09-06T
11:34:15+0000
2.982 km
极远距离
9.4531E-7 极低风险 0.35